TIME,DELAY(SENSOR),PRES,T(CTD),SAL,OXYGEN,RAWTEMP,T(OPTODE),TCPHASE,TURBIDITY,TURBIDITY_GAIN,FLUOR,BETA,CDOM,CSC,CHECK
1349177331,8894,1003.4600219726562000,6.5595998764038090,35.0857009887695300,232.4288024902343800,672.5297851562500000,6.5357990264892580,36.8729705810546900,15,3,50,84,64,15768,52733
1349177469,8892,993.0499877929688000,6.6564998626708980,35.0891990661621100,230.0973052978515600,669.5463256835938000,6.6348800659179690,36.9388504028320300,15,3,50,84,62,15768,39228
1349177630,8893,981.3699951171875000,6.7993998527526855,35.0941009521484400,224.9472961425781200,665.1854858398438000,6.7794990539550780,37.1324195861816400,15,3,50,84,63,15768,57064
1349177779,8893,971.2500000000000000,6.8783001899719240,35.0955009460449200,222.6735992431640600,662.7683715820312000,6.8595662117004395,37.2106285095214840,15,3,50,85,64,15768,46065
1349177929,8892,959.3599853515625000,7.1164999008178710,35.1013984680175800,217.9093017578125000,655.6909179687500000,7.0936088562011720,37.3422889709472660,16,3,50,84,64,15766,7493
1349178045,8893,948.1300048828125000,7.2849001884460450,35.1113014221191400,212.9409027099609400,650.2584228515625000,7.2728610038757320,37.5226593017578100,16,3,50,84,64,15764,40832
1349178160,8892,935.9699707031250000,7.4748997688293460,35.1213989257812500,208.7456054687500000,644.4235839843750000,7.4650149345397950,37.6567802429199200,15,3,50,85,64,15766,15660
1349178281,8893,922.6099853515625000,7.5750999450683590,35.1282005310058600,206.1156005859375000,641.4443969726562000,7.5629792213439940,37.7568397521972660,16,3,50,86,64,15766,29925
1349178410,8893,909.7899780273438000,7.6704001426696780,35.1296005249023440,203.4826965332031200,638.6774291992188000,7.6538767814636230,37.8629188537597660,15,3,50,84,64,15765,248
1349178535,8893,899.2199707031250000,7.8099999427795410,35.1304016113281250,200.9588012695312500,634.7907714843750000,7.7814102172851560,37.9445686340332000,15,3,50,86,64,15764,41543
1349178675,8894,888.0399780273438000,7.9233999252319340,35.1374015808105500,197.9898986816406200,631.0366821289062000,7.9044380187988280,38.0571784973144500,15,3,50,84,64,15765,45244
1349178802,8893,877.7500000000000000,8.0609998703002930,35.1450996398925800,195.3849029541015600,626.7789916992188000,8.0437831878662110,38.1419410705566400,15,3,51,86,63,15764,24725
1349178963,8892,864.2399902343750000,8.3274002075195310,35.1618995666503900,189.8694000244140600,618.6508789062500000,8.3092584609985350,38.3448181152343750,16,3,50,85,62,15766,22804
1349179079,8892,853.2399902343750000,8.5628995895385740,35.1748008728027340,186.2104034423828000,610.9210205078125000,8.5610809326171880,38.4442710876464840,16,3,50,84,64,15764,63082
1349179218,8893,842.3800048828125000,8.9706001281738280,35.2098007202148440,179.6273040771484400,598.7734985351562000,8.9555759429931640,38.6682395935058600,16,3,50,84,63,15767,49596
1349179357,8892,831.5499877929688000,9.2899999618530270,35.2439002990722660,177.1678009033203000,588.8654174804688000,9.2762489318847660,38.6632690429687500,15,3,50,83,64,15768,37753
1349179485,8892,820.6099853515625000,9.5897998809814450,35.2720985412597660,175.5446929931640600,579.3167114257812000,9.5843791961669920,38.6103286743164060,15,3,50,84,63,15770,29693
1349179613,8893,809.7700195312500000,9.7862997055053710,35.2924995422363300,174.6204071044922000,573.0620727539062000,9.7857437133789060,38.5685691833496100,15,3,50,84,62,15768,60620
1349179741,8894,798.1599731445312000,10.0651998519897460,35.3100013732910160,172.3289031982422000,564.3455200195312000,10.0657596588134770,38.5799293518066400,16,3,50,84,62,15768,28519
1349179857,8893,787.0900268554688000,10.2548999786376950,35.3331985473632800,171.8043975830078000,558.5454711914062000,10.2517004013061520,38.5189399719238300,15,3,50,84,62,15767,63422
1349179973,8894,775.6300048828125000,10.3802003860473630,35.3455009460449200,171.2966003417968800,554.6832275390625000,10.3753499984741210,38.4899291992187500,15,3,50,84,62,15766,11478
1349180094,8894,763.4799804687500000,10.5080995559692380,35.3602981567382800,171.3171997070312500,550.3552856445312000,10.5137596130371100,38.4162406921386700,15,3,50,83,62,15768,53157
1349180228,8895,753.5800170898438000,10.7438001632690430,35.3881988525390600,171.3946990966797000,543.2659912109375000,10.7401103973388670,38.2925910949707000,16,3,50,82,61,15772,16451
1349180410,8893,740.6400146484375000,10.9371004104614260,35.4121017456054700,172.1752014160156200,536.1936035156250000,10.9655103683471680,38.1194915771484400,15,3,52,82,62,15772,60822
1349180514,8894,730.1199951171875000,11.2650003433227540,35.4449996948242200,172.3177947998047000,526.1492919921875000,11.2848901748657230,37.9440612792968750,15,3,50,83,62,15771,60157
1349180630,8892,719.4000244140625000,11.5455999374389650,35.4812011718750000,172.7117004394531200,517.8759765625000000,11.5473604202270500,37.7812881469726560,16,3,50,84,62,15770,20914
1349180757,8893,708.3900146484375000,11.7061996459960940,35.5029983520507800,175.2872009277343800,513.7650146484375000,11.6775798797607420,37.5348892211914060,15,3,50,88,63,15764,42355
1349180896,8892,697.0599975585938000,11.8480997085571290,35.5074005126953100,167.7550048828125000,508.0328979492187500,11.8589200973510740,37.9743118286132800,15,3,50,87,60,15764,45151
1349181056,8893,682.9099731445312000,12.1047000885009770,35.5409011840820300,167.0847930908203000,499.8425903320312500,12.1176099777221680,37.8894996643066400,15,3,50,87,61,15763,18063
1349181160,8893,672.2500000000000000,12.4003000259399410,35.5848999023437500,170.3110046386718800,490.9088134765625000,12.3992204666137700,37.5146713256835940,16,3,50,86,63,15764,63969
1349181282,8893,659.8499755859375000,12.6847000122070310,35.6241989135742200,171.6614990234375000,481.5049133300781000,12.6950302124023440,37.2691497802734400,15,3,50,86,60,15765,16873
1349181405,8893,648.8200073242188000,12.8559999465942380,35.6444015502929700,169.0131072998047000,475.6530151367187500,12.8788099288940430,37.3643302917480500,15,3,50,88,60,15762,63861
1349181520,8894,638.7500000000000000,13.1037998199462890,35.6917991638183600,178.8343048095703000,467.9414978027344000,13.1206197738647460,36.5606994628906250,16,3,50,85,60,15768,29434
1349181647,8892,627.8200073242188000,13.4898996353149410,35.7491989135742200,182.1956939697265600,456.1874084472656000,13.4884796142578120,36.1529808044433600,15,3,50,84,60,15766,18282
1349181786,8892,616.3800048828125000,13.7390003204345700,35.7863998413085940,185.0050048828125000,448.1806030273437500,13.7385597229003900,35.8457908630371100,16,3,50,86,60,15763,2018
1349181926,8894,605.3499755859375000,14.0952997207641600,35.8314018249511700,185.6038970947265600,436.2463073730469000,14.1106100082397460,35.6241798400878900,15,3,50,88,60,15758,36051
1349182082,8894,592.1199951171875000,14.4053001403808600,35.8907012939453100,189.2227935791015600,426.0093078613281000,14.4291095733642580,35.2379798889160160,15,3,50,86,60,15764,25749
1349182198,8893,580.7700195312500000,14.6451997756958000,35.9254989624023440,187.6992950439453000,417.5857849121094000,14.6907701492309570,35.2070388793945300,15,3,50,86,59,15758,59447
1349182313,8894,569.4799804687500000,15.0801000595092770,36.0038986206054700,192.9886016845703000,404.9052124023437500,15.0839700698852540,34.6883316040039060,16,3,50,84,58,15763,5902
1349182428,8893,558.0100097656250000,15.3430004119873050,36.0536003112793000,197.4432983398437500,396.4666137695312500,15.3451995849609380,34.2945404052734400,16,3,50,84,58,15763,61185
1349182562,8893,544.7299804687500000,15.4577999114990230,36.0619010925293000,196.9396057128906200,392.0624084472656000,15.4814100265502930,34.2601509094238300,15,3,50,86,58,15757,8466
1349182684,8893,534.2500000000000000,15.7594995498657230,36.1161994934082000,198.3547058105468800,383.0397949218750000,15.7601900100708000,34.0442581176757800,15,3,50,85,56,15760,58418
1349182811,8894,523.8099975585938000,15.9717998504638670,36.1661987304687500,204.4665985107422000,375.8338012695312500,15.9825897216796880,33.5855598449707000,16,3,50,86,56,15764,21638
1349182950,8894,512.7500000000000000,16.1352996826171880,36.1941986083984400,202.6316070556640600,370.5866088867187500,16.1444091796875000,33.6148109436035160,15,3,50,84,58,15763,61232
1349183105,8894,500.4500122070312500,16.3964996337890620,36.2430992126464840,205.2346038818359400,361.6133117675781000,16.4208793640136720,33.3380317687988300,15,3,49,84,56,15765,29581
1349183233,8894,488.9599914550781000,16.4939002990722660,36.2625007629394500,208.9481964111328000,358.8434143066406000,16.5061607360839840,33.0915107727050800,15,3,50,86,56,15762,35392
1349183361,8893,478.1099853515625000,16.5634994506835940,36.2788009643554700,211.8524017333984400,356.4690856933594000,16.5792503356933600,32.8986396789550800,16,3,50,85,56,15762,38650
1349183489,8892,467.9899902343750000,16.7782993316650400,36.3203010559082000,216.3977050781250000,349.7202148437500000,16.7868690490722660,32.5601806640625000,16,3,50,84,54,15762,17201
1349183624,8893,455.7900085449219000,16.9326000213623050,36.3488006591796900,217.6118011474609400,344.4292907714844000,16.9495391845703120,32.4226493835449200,16,3,50,84,56,15762,38690
1349183728,8892,444.9599914550781000,17.0781002044677730,36.3760986328125000,219.4832000732422000,339.8252868652344000,17.0910091400146500,32.2613182067871100,15,3,48,84,56,15761,36670
1349183850,8893,432.2000122070312500,17.2481002807617200,36.4099998474121100,222.9859924316406200,334.3591918945312500,17.2588901519775400,32.0059204101562500,16,3,50,84,54,15762,23848
1349183978,8893,420.0400085449219000,17.3195991516113280,36.4244995117187500,224.9071960449218800,332.1065063476562500,17.3280506134033200,31.8781299591064450,16,3,50,84,54,15762,39699
1349184103,8894,410.0799865722656000,17.3358993530273440,36.4294013977050800,225.5361938476562500,331.4562072753906000,17.3480091094970700,31.8376007080078120,15,3,49,84,54,15762,33297
1349184236,8893,398.9299926757812500,17.4813003540039060,36.4586982727050800,229.3849029541015600,326.5343017578125000,17.4990692138671880,31.5793209075927730,16,3,50,85,54,15757,63868
1349184324,8893,390.1700134277344000,17.5569000244140620,36.4739990234375000,231.2882995605468800,324.2701110839844000,17.5685291290283200,31.4558506011962900,16,3,50,84,54,15758,514
1349184392,8894,382.9599914550781000,17.6340999603271500,36.4888000488281250,232.2406005859375000,321.8129882812500000,17.6438999176025400,31.3767604827880860,15,3,50,86,56,15758,7386
1349184457,8893,376.1499938964844000,17.6571006774902340,36.4934005737304700,233.2272949218750000,320.9801940917969000,17.6694393157959000,31.3180999755859380,15,3,50,85,54,15756,58633
1349184556,8893,366.7399902343750000,17.7425994873046880,36.5078010559082000,234.0037994384765600,318.1705017089844000,17.7555999755859380,31.2430305480957030,16,3,50,85,54,15755,46159
1349184640,8893,360.4400024414062500,17.8129005432128900,36.5217018127441400,235.1307067871093800,315.8646850585937500,17.8262901306152340,31.1585102081298830,16,3,50,85,54,15757,23219
1349184739,8893,353.5100097656250000,17.8836994171142580,36.5340003967285160,236.4476013183593800,313.6946105957031000,17.8928203582763670,31.0668792724609380,18,3,49,86,54,15758,49541
1349184825,8892,346.7500000000000000,17.9486999511718750,36.5443992614746100,236.9270935058593800,311.5362854003906000,17.9589691162109380,31.0156307220459000,16,3,50,84,54,15757,25951
1349184924,8892,338.3900146484375000,18.0013008117675780,36.5513992309570300,236.7615051269531200,309.8711853027344000,18.0099906921386720,31.0010108947753900,15,3,49,85,54,15757,41219
1349185012,8893,330.3900146484375000,18.0053005218505860,36.5502014160156250,236.0070953369140600,309.5393066406250000,18.0201606750488280,31.0321292877197270,15,3,50,87,52,15756,3733
1349185080,8892,324.0299987792969000,18.0555000305175780,36.5568008422851560,235.8419036865234400,307.9490051269531000,18.0688800811767580,31.0187797546386720,16,3,50,85,54,15754,11182
1349185145,8893,317.8099975585937500,18.1016998291015620,36.5630989074707000,235.3529968261718800,306.4859008789062500,18.1137104034423830,31.0225391387939450,15,3,50,87,54,15754,35110
1349185213,8893,311.5199890136719000,18.1354999542236330,36.5676002502441400,235.2438964843750000,305.4036865234375000,18.1468601226806640,31.0132408142089840,15,3,50,86,53,15755,58584
1349185278,8893,305.5599975585937500,18.1895008087158200,36.5731010437011700,234.7760009765625000,303.7573852539062500,18.1972904205322270,31.0133399963378900,16,3,50,84,52,15754,22055
1349185346,8892,298.9800109863281000,18.2331008911132800,36.5770988464355500,234.1069946289062500,302.3255004882812500,18.2411403656005860,31.0261592864990230,15,3,50,86,54,15753,8261
1349185411,8893,292.3599853515625000,18.2749004364013670,36.5805015563964840,233.0903015136718800,300.9776916503906000,18.2824192047119140,31.0564804077148440,16,3,50,86,54,15751,41004
1349185510,8892,282.2699890136719000,18.3251991271972660,36.5842018127441400,231.9066009521484400,299.2185974121094000,18.3362808227539060,31.0900192260742200,16,3,49,86,54,15752,26147
1349185593,8893,274.3500061035156000,18.4015007019042970,36.5903015136718750,231.4199066162109400,296.9419860839844000,18.4059906005859380,31.0830497741699220,16,3,50,85,55,15752,48612
1349185661,8893,268.0400085449219000,18.4125003814697270,36.5750999450683600,230.7214050292968800,296.4166870117187500,18.4220695495605470,31.1098709106445300,15,3,50,86,54,15752,48373
1349185726,8894,261.9500122070312500,18.4239997863769530,36.5740013122558600,231.3925018310547000,295.9762878417969000,18.4355506896972660,31.0715007781982420,16,3,49,86,53,15750,60653
1349185794,8893,255.5099945068359400,18.3896007537841800,36.5541992187500000,233.9382019042968800,297.8500061035156000,18.3781890869140620,30.9745502471923830,15,3,50,87,52,15748,37873
1349185859,8894,249.4499969482422000,18.3904991149902340,36.5358009338378900,238.6699981689453000,296.6821899414062500,18.4139404296875000,30.7370395660400400,15,3,50,88,52,15747,4130
1349185927,8894,243.0599975585937500,18.3743000030517580,36.5172004699707000,241.7404022216797000,297.8500976562500000,18.3781890869140620,30.6109008789062500,15,3,50,89,52,15746,44801
1349185992,8892,236.8899993896484400,18.3356990814209000,36.4968986511230500,244.4432067871093800,298.9299926757812500,18.3451194763183600,30.5024509429931640,15,3,50,90,53,15744,30684
1349186060,8894,230.4400024414062500,18.4277992248535160,36.5150985717773440,245.1291961669922000,296.3424072265625000,18.4243392944335940,30.4377098083496100,16,3,52,90,52,15744,54419
1349186125,8893,224.5899963378906200,18.5517997741699220,36.5354003906250000,243.2010040283203000,292.0581054687500000,18.5554904937744140,30.4682502746582030,15,3,52,89,52,15746,28215
1349186193,8893,218.7899932861328000,18.5575008392334000,36.5152015686035160,242.4891967773437500,291.4776916503906000,18.5732498168945300,30.4930305480957030,16,3,54,89,52,15743,27547
1349186271,8893,212.4100036621093800,18.6144008636474600,36.5199012756347660,243.6669006347656200,289.6346130371094000,18.6296596527099600,30.4156398773193360,15,3,55,88,52,15740,48289
1349186351,8893,206.0800018310547000,18.7879009246826170,36.5583992004394500,241.1082000732422000,284.2608032226562500,18.7940807342529300,30.4614200592041000,15,3,50,84,52,15750,59460
1349186428,8893,200.1499938964843800,18.8861007690429700,36.5732002258300800,238.2608947753906200,281.0250854492187500,18.8930702209472660,30.5503196716308600,16,3,50,85,53,15752,24252
